Regional Weather Roundup
Issued by NWS

Home | Current Version | Previous Version | Text Only | Print | Product List | Glossary Off
Versions: 1 2 3 4 5 6 7 8 9 10 11 12 13 14 15 16 17 18 19 20 21 22 23 24 25 26 27 28 29 30 31 32 33 34 35 36 37 38 39 40 41 42 43 44 45 46 47 48 49 50

000
ASUS43 KMPX 290110
RWRMN
WEATHER ROUNDUP FOR MINNESOTA
NATIONAL WEATHER SERVICE TWIN CITIES/CHANHASSEN MN
800 PM CDT SAT MAR 28 2015


NOTE: "FAIR" INDICATES FEW OR NO CLOUDS BELOW 12,000 FEET WITH NO
SIGNIFICANT WEATHER AND/OR OBSTRUCTIONS TO VISIBILITY. N/A MEANS
CURRENT SKY AND/OR WEATHER CONDITIONS ARE NOT AVAILABLE.

MNZ060>063-068>070-290200-
   Twin Cities Metro

CITY           SKY/WX    TMP DP  RH WIND       PRES   REMARKS
TWIN CITIES    PTCLDY    37  21  52 SE12      30.05F
ST PAUL        CLEAR     37  21  52 S14       30.07F
CRYSTAL        CLEAR     38  22  52 SE14      30.02F
BLAINE         CLEAR     39  23  52 SE10      30.03F
LAKEVILLE      CLEAR     32  23  69 SE10      30.05F WCI  24
EDEN PRAIRIE   CLEAR     36  23  59 SE14      30.02F
SOUTH ST PAUL  CLEAR     37  22  53 S9        30.06F
LAKE ELMO      FAIR      36  21  55 S10       30.06F
$$
MNZ001>005-007-008-013>017-022>024-027-028-290200-
   Northwest Minnesota

CITY           SKY/WX    TMP DP  RH WIND       PRES   REMARKS
BEMIDJI        CLOUDY    38  25  59 S15G28    29.81F
HALLOCK        MOCLDY    43  30  61 S22       29.61F
ROSEAU         CLOUDY    43  30  61 S22G30    29.69F
WARROAD        CLOUDY    43  28  56 S15G22    29.71F
THIEF RVR FALL CLOUDY    39  28  65 S18G26    29.71F
CROOKSTON      MOCLDY    45  30  57 S26G33    29.70F
FOSSTON        CLOUDY    37  27  65 S20G26    29.76F
DETROIT LAKES  CLOUDY    39  30  70 S18       29.80F
MOORHEAD       PTCLDY    46  30  53 S22G30    29.75F
PARK RAPIDS    CLOUDY    40  26  57 S18       29.84F
MAHNOMEN       FAIR      39  28  64 S17G24    29.76F
$$
MNZ006-009>011-018-025>026-290200-
   North Central Minnesota

CITY           SKY/WX    TMP DP  RH WIND       PRES   REMARKS
BAUDETTE       CLOUDY    41  24  51 S20G29    29.73F
FLAG ISLAND    CLOUDY    34  28  80 S16       29.68F WCI  23
INTL FALLS     MOCLDY    41  19  41 S9G18     29.80F
WASKISH        CLOUDY    41  25  52 CALM      29.78F
BIG FORK       MOCLDY    39  19  45 S12G21    29.84F
LONGVILLE      MOCLDY    37  23  56 S15       29.87F
GRAND RAPIDS   PTCLDY    37  18  44 S15G30    29.89F
CRANE LAKE     PTCLDY    37  12  35 S8        29.88F
ORR            PTCLDY    37  16  41 S9G18     29.84F
COOK           PTCLDY    37  18  44 S9G16     29.87F
WALKER         FAIR      38  24  57 S14G20    29.84F
$$
MNZ012-019>021-037-290200-
   Northeast Minnesota

CITY           SKY/WX    TMP DP  RH WIND       PRES   REMARKS
DULUTH         PTCLDY    38  14  37 S10       29.96F
ELY            PTCLDY    37  10  32 S13       29.89F
HIBBING        PTCLDY    37  15  40 S7        29.89F
EVELETH        MOCLDY    36  18  48 S13G18    29.91F
DULUTH HARBOR  PTCLDY    41  16  36 S16       30.00F
TWO HARBORS    PTCLDY    37  19  48 S6        29.95F
SILVER BAY     PTCLDY    30  16  55 CALM      29.96F
GRAND MARAIS     N/A     29  18  63 CALM      30.01F
G MARAIS ARPRT CLOUDY    25   7  46 S5        29.95S WCI  19
$$
MNZ029>031-032-039>041-046>048-054>057-064-290200-
   West Central Minnesota

CITY           SKY/WX    TMP DP  RH WIND       PRES   REMARKS
FERGUS FALLS   PTCLDY    41  27  56 S20       29.83F
WHEATON        CLEAR     43  28  56 SE16G23   29.82F
MORRIS         PTCLDY    41  32  70 SE17      29.84F
ALEXANDRIA     CLOUDY    40  28  62 SE18      29.87F
ELBOW LAKE     FAIR      40  30  67 SE18G25   29.83F
WADENA         CLOUDY    37  27  65 S14G22    29.86F
GLENWOOD       MOCLDY    39  28  65 SE17      29.89F
APPLETON       PTCLDY    46  30  53 S13G18    29.86F
BENSON         PTCLDY    43  30  61 S15       29.88F
ORTONVILLE     CLEAR     46  28  49 S14       29.83F
MADISON        CLEAR     46  28  49 S14G21    29.85F
WILLMAR        FAIR      43  30  61 S13       29.94F
$$
MNZ033>034-036-042>043-049>051-058-059-290200-
   Central Minnesota

CITY           SKY/WX    TMP DP  RH WIND       PRES   REMARKS
ST CLOUD       CLEAR     38  23  55 S13       29.98F
SAUK CENTRE    FAIR      39  29  67 SE14      29.91F
PAYNESVILLE    PTCLDY    38  27  64 E12       29.94F
AITKIN         PTCLDY    39  21  48 S10G16    29.93F
PINE RIVER     MOCLDY    37  27  65 S15G21    29.91F
BRAINERD       PTCLDY    38  22  52 S13       29.93F
STAPLES        MOCLDY    37  25  60 S15       29.89F
LONG PRAIRIE   FAIR      37  28  70 SE14      29.91F
LITTLE FALLS   CLEAR     37  23  56 SE12      29.94F
LITCHFIELD     CLEAR     41  28  60 SE6       29.97F
BUFFALO        CLEAR     37  23  56 SE7       30.01F
MAPLE LAKE     CLEAR     38  27  64 SE8       30.00S
$$
MNZ037-044-045-052-053-290200-
   East Central Minnesota

CITY           SKY/WX    TMP DP  RH WIND       PRES   REMARKS
PRINCETON      CLEAR     37  21  52 SE9       30.01F
MORA           PTCLDY    36  19  51 S9        30.02F
CAMBRIDGE      CLEAR     39  25  56 SE7       30.00F
RUSH CITY      CLEAR     36  21  55 S8        30.03F
MOOSE LAKE     CLEAR     36  18  48 S12G17    29.97F
HINCKLEY       FAIR      36  21  55 S10       30.01F
CLOQUET        PTCLDY    37  12  35 S13G18    29.97F
MCGREGOR       PTCLDY    36  23  60 S13G20    29.95F
$$
MNZ071>073-080-081-089-090-097-098-290200-
   Southwest Minnesota

CITY           SKY/WX    TMP DP  RH WIND       PRES   REMARKS
MONTEVIDEO     PTCLDY    45  30  57 S12G21    29.89F
GRANITE FALLS  PTCLDY    43  31  60 SE16      29.91F
CANBY          CLEAR     47  27  44 S13       29.87F
MARSHALL       CLEAR     46  27  46 S18       29.90F
REDWOOD FALLS  CLEAR     43  29  57 S16       29.94F
OLIVIA         CLEAR     39  30  70 S12       29.93F
PIPESTONE      CLEAR     45  27  49 S16G22    29.88F
WINDOM         CLEAR     45  27  49 S14G20    29.96F
WORTHINGTON    CLEAR     45  25  45 S16       29.95F
JACKSON        CLEAR     43  27  52 S15G22    29.98F
TRACY          CLEAR     46  29  52 S12G20    29.91F
SLAYTON        CLEAR     42  25  51 S15       29.92F
$$
MNZ065>067-074>077-082>085-091>093-290200-
   South Central Minnesota

CITY           SKY/WX    TMP DP  RH WIND       PRES   REMARKS
MANKATO        CLEAR     39  25  56 S13       30.02F
NEW ULM        CLEAR     41  25  52 S13       29.98F
ST JAMES       CLEAR     45  25  45 SE16      30.00F
FAIRMONT       CLEAR     39  21  48 S14       30.01S
GLENCOE        CLEAR     39  29  68 SE9       29.99F
FARIBAULT      CLEAR     36  27  69 SE9       30.05F
OWATONNA       CLEAR     37  25  60 SE12      30.05F
WASECA         CLEAR     39  27  60 S13       30.06F
ALBERT LEA     CLEAR     39  21  48 S10       30.06F
$$
MNZ078>079-086>088-094>096-290200-
   Southeast Minnesota

CITY           SKY/WX    TMP DP  RH WIND       PRES   REMARKS
ROCHESTER      CLEAR     33  21  61 S10       30.09F WCI  25
RED WING       CLEAR     36  18  48 S7        30.09F
STANTON        CLEAR     37  22  55 SE13G20   30.04F
DODGE CENTER   PTCLDY    32  27  80 SE10      30.07F WCI  24
WINONA         CLEAR     36  19  51 S6        30.14F
AUSTIN         CLEAR     37  23  56 S6        30.08F
PRESTON        CLEAR     33  19  56 S10       30.10F WCI  25
$$
ABBREVIATIONS USED IN REMARKS
   TC - TEMPERATURES IN CELSIUS
  WCI - WIND CHILL INDEX
   HX - HEAT INDEX
  VSB - VISIBILITY
$$



USA.gov is the U.S. government's official web portal to all federal, state and local government web resources and services.